Theta_e
347 346 343 340 337 335 335 337 342 346 347 346 346 346 346 347 347 348 348 347 346 343 341 339 338 338 340 344 344 344 344 344 343 342 342 340 340 340 340 341 342 341
348 347 345 344 341 338 336 337 342 346 347 348 347 346 346 346 347 348 348 348 348 347 345 344 343 342 342 343 344 345 345 345 345 345 345 343 341 341 341 341 343 343
349 348 346 345 344 341 338 338 342 346 347 348 348 347 347 346 347 348 348 348 348 348 347 347 346 346 345 345 345 345 345 345 344 345 346 345 344 343 342 342 343 344
350 350 348 346 345 343 341 340 341 343 346 347 348 348 347 347 348 348 348 348 348 348 348 348 347 348 347 347 347 347 346 345 344 343 343 344 344 345 345 344 345 345
350 350 349 347 346 345 344 343 341 342 343 344 346 347 347 349 349 348 348 348 348 348 349 348 348 348 348 348 348 348 347 346 345 344 343 342 342 343 344 344 345 346
350 350 350 349 348 347 347 346 344 343 342 342 343 344 346 349 349 349 349 349 348 348 348 349 349 348 348 348 348 348 348 348 347 347 345 344 344 343 343 344 344 345
350 350 350 350 350 349 349 349 349 347 345 343 343 342 344 347 348 348 348 349 349 349 349 349 349 349 348 348 349 348 349 348 348 347 347 346 346 345 345 345 344 345
349 350 350 350 351 350 350 351 351 350 347 345 343 341 342 344 345 346 346 348 350 349 349 349 349 349 349 350 350 349 349 348 347 347 347 347 346 346 346 346 346 345
348 349 349 350 351 351 350 350 350 348 346 344 342 341 341 342 342 344 347 349 351 351 351 350 350 349 349 349 349 348 347 346 345 345 346 346 346 346 346 345 346 345
347 348 349 351 351 349 347 346 346 346 345 343 342 342 342 341 342 345 349 352 352 351 350 350 350 349 348 347 347 347 345 344 345 345 345 346 346 346 346 345 345 345
347 348 348 349 349 347 345 343 343 343 343 344 344 344 344 343 346 348 348 348 347 347 349 350 349 349 349 349 348 347 347 345 344 344 344 345 345 345 345 345 344 344
347 347 348 349 349 349 349 345 345 344 344 344 344 344 346 348 351 350 347 345 345 346 349 350 349 349 350 350 348 348 348 346 344 343 343 343 343 343 344 344 344 344
347 347 348 349 350 351 350 348 348 346 345 345 345 347 350 352 351 348 347 348 347 346 347 348 349 350 350 350 348 348 348 346 345 344 344 344 344 344 343 344 345 345
347 347 348 350 351 351 350 350 350 349 349 349 350 351 351 351 349 347 348 349 349 348 347 347 349 349 349 349 348 347 347 346 345 345 344 344 344 345 345 344 345 346
347 348 349 351 351 351 351 350 351 352 353 353 352 352 351 349 349 349 349 349 349 349 349 349 349 348 348 348 347 347 347 346 345 345 346 345 345 346 347 346 345 345
347 347 349 352 352 351 350 350 351 353 354 353 353 354 353 351 350 350 349 349 349 349 350 349 349 348 347 346 345 344 344 344 343 343 344 346 346 347 347 346 345 345
348 348 351 354 354 350 348 349 351 352 352 352 352 353 352 350 349 348 348 349 349 349 349 349 348 347 345 343 341 341 343 343 342 342 342 344 345 346 346 346 346 346
350 351 353 355 353 349 350 352 352 353 352 351 351 350 349 348 346 346 347 349 349 349 348 348 347 345 343 343 344 345 344 342 342 343 343 343 344 344 344 344 345 345
351 352 354 355 352 349 352 354 353 353 351 350 348 348 347 346 346 346 347 348 348 347 347 346 344 344 344 344 345 344 344 344 345 346 345 345 344 344 345 345 345 345
352 354 357 356 353 351 351 351 351 351 349 348 347 346 346 346 346 346 346 346 346 346 345 344 345 345 345 344 343 345 346 346 346 345 344 344 345 345 345 345 346 346
354 356 356 354 352 351 350 350 350 349 348 347 346 344 345 345 345 344 344 343 344 344 344 345 345 345 344 343 344 346 347 346 346 345 345 345 345 345 345 346 346 345
355 354 353 352 351 350 350 349 349 348 347 346 344 344 344 344 343 343 343 343 343 344 344 345 344 344 344 344 346 346 345 344 343 342 341 341 341 342 342 342 341 341
354 352 351 351 350 349 349 348 347 346 345 345 344 344 343 343 343 343 344 344 345 345 345 344 344 344 345 345 345 343 340 338 337 334 333 331 331 332 333 333 333 334
352 350 350 350 349 349 348 346 345 344 344 344 344 344 344 344 345 345 345 345 345 345 345 345 345 345 344 343 340 338 336 336 335 333 329 327 327 328 328 328 328 329
351 350 349 348 347 347 346 345 344 344 344 344 344 344 344 344 345 346 346 346 346 346 345 344 344 343 342 340 339 338 338 338 335 331 329 329 331 332 332 331 331 329
348 347 346 345 346 345 345 345 345 345 346 345 345 344 344 345 345 345 345 345 345 345 343 341 341 341 340 341 340 340 340 337 334 333 334 335 335 334 334 333 333 333
Wind_Speed
19 19 19 20 21 21 21 21 21 20 18 17 17 16 14 13 12 12 12 11 11 12 14 16 19 20 21 21 22 22 21 21 21 22 23 25 24 24 22 21 20 20
20 19 20 20 21 22 22 22 22 21 20 19 19 17 16 15 14 14 14 13 12 12 12 14 16 18 20 21 22 22 22 21 21 20 21 23 24 24 24 23 22 21
21 21 21 21 21 21 23 23 23 23 22 21 21 20 19 18 17 16 15 15 15 14 13 13 14 16 17 18 19 20 21 22 22 21 21 22 23 24 24 24 24 23
21 21 21 21 21 20 21 23 23 23 23 23 23 22 22 21 19 18 17 16 16 16 15 14 14 15 15 16 17 18 19 20 20 21 22 23 23 24 25 25 25 25
21 20 21 20 20 20 20 22 23 23 24 24 25 24 23 22 21 19 18 18 18 18 17 17 16 17 17 17 18 18 18 18 18 19 21 23 23 25 26 26 27 27
22 22 21 20 20 19 19 20 21 22 23 25 26 26 25 23 21 20 19 19 19 20 20 20 19 19 19 19 19 20 19 20 20 19 20 21 21 22 23 24 25 25
23 22 21 21 20 20 19 19 19 20 22 24 25 25 25 24 23 22 22 21 21 21 22 22 22 21 20 21 21 22 22 23 23 22 22 22 21 21 22 22 22 22
22 21 20 20 20 20 20 19 19 20 21 22 23 23 23 24 25 24 23 22 22 22 23 24 25 24 22 22 23 24 25 25 24 25 25 24 24 23 23 23 23 22
19 20 20 19 19 18 18 18 18 19 20 21 21 21 21 22 24 24 23 22 22 22 23 24 26 25 23 22 22 23 23 23 22 24 26 27 26 25 24 24 25 24
17 18 18 18 16 15 15 15 17 18 19 20 19 19 20 21 22 24 24 24 22 22 23 24 25 24 22 21 22 22 22 22 23 24 26 26 26 27 28 27 26 24
16 16 16 15 15 14 13 14 16 17 17 18 19 19 19 19 21 23 25 25 24 24 25 24 24 23 22 23 24 23 23 24 24 24 23 24 26 28 29 29 27 25
15 16 15 15 16 16 15 15 16 17 17 17 19 19 19 20 21 22 24 25 25 26 26 24 23 22 23 25 25 24 23 22 22 21 21 22 23 24 25 25 24 24
15 15 15 17 18 17 16 17 17 17 18 18 19 20 21 21 21 21 24 26 26 27 26 24 22 21 22 24 23 22 22 21 21 21 22 23 24 25 25 25 23 24
14 14 16 19 18 15 16 17 16 16 17 17 19 21 21 20 19 20 23 25 24 25 26 25 22 20 19 20 20 20 20 19 19 19 21 22 23 24 25 24 23 23
13 13 15 18 17 14 15 16 14 15 16 15 17 19 19 18 17 18 20 21 20 20 22 22 21 18 16 16 16 16 16 16 17 17 18 20 21 23 23 22 21 20
15 13 15 17 16 13 13 14 13 14 15 14 15 16 16 16 16 16 16 17 16 15 16 16 16 14 12 11 11 12 13 14 15 16 17 17 19 20 21 20 19 19
17 16 16 17 16 13 12 12 12 12 13 13 12 13 13 14 14 13 12 12 12 10 10 10 10 9 8 8 9 10 11 11 13 14 14 15 16 17 17 17 17 16
19 18 17 16 13 11 10 10 10 11 12 11 9 10 11 11 9 7 6 6 6 5 4 5 6 7 7 7 8 9 10 11 11 13 13 13 14 14 15 15 15 14
18 18 16 13 10 10 10 8 8 8 8 7 6 7 7 6 4 3 1 0 1 1 2 4 6 7 7 7 8 9 10 10 11 12 12 12 12 12 13 14 14 14
17 15 12 9 6 6 7 7 5 5 5 5 5 5 5 3 2 2 2 2 2 3 3 4 5 6 6 7 7 8 8 9 10 11 12 12 12 12 12 13 13 13
14 10 7 6 6 8 8 6 6 6 7 6 4 4 3 3 2 2 2 2 3 2 2 3 4 5 5 5 5 6 7 8 9 11 11 12 12 12 12 12 13 13
10 8 8 8 8 9 9 7 6 7 7 5 4 4 3 2 2 2 2 2 2 2 2 3 3 3 3 3 3 5 6 7 7 8 10 10 11 11 11 12 12 12
9 10 11 11 10 9 7 6 5 6 5 4 4 4 3 2 1 2 2 2 2 2 2 2 1 2 2 1 2 3 4 5 5 6 7 8 9 10 9 10 10 8
11 11 11 11 10 8 7 7 6 6 6 5 4 4 3 3 2 3 3 3 2 1 0 1 1 1 1 1 1 2 3 4 5 5 5 5 6 6 7 7 8 7
11 11 10 10 9 9 9 9 8 7 6 5 4 4 3 3 3 4 4 3 2 2 1 1 2 2 2 1 1 2 3 4 4 4 4 4 5 6 7 7 8 8
11 10 10 9 9 10 10 10 9 7 6 5 4 3 2 1 2 2 2 2 3 2 2 2 2 2 2 2 2 3 4 5 4 4 5 6 7 8 9 8 8 8
Wind_Direction
238 237 237 238 237 236 236 236 233 230 230 233 236 237 238 240 240 240 244 247 246 244 240 239 239 238 238 238 239 241 244 246 248 249 249 249 250 252 254 254 253 254
238 239 239 240 239 238 237 238 238 237 239 242 244 245 246 247 243 240 243 246 248 249 244 241 241 240 240 240 242 244 246 248 250 251 251 251 250 250 252 254 256 257
238 239 240 241 240 239 238 239 240 240 242 244 247 249 250 248 245 242 243 245 246 248 246 242 239 238 239 239 241 244 247 250 252 253 254 253 252 252 252 254 256 258
235 238 239 241 242 241 239 239 241 243 243 245 247 250 250 248 247 246 247 249 249 248 247 245 243 240 240 240 242 244 245 249 253 253 254 254 254 255 255 257 259 260
235 238 239 240 242 243 241 240 242 244 246 248 249 250 250 249 249 249 251 253 254 252 249 246 245 243 243 245 246 247 246 248 250 251 251 252 253 255 257 259 262 264
235 238 240 242 243 243 243 243 244 246 248 249 250 250 250 250 252 252 253 255 257 256 253 251 250 248 247 247 248 247 248 249 248 248 248 249 249 252 255 258 261 263
237 239 241 243 245 245 246 247 248 249 250 251 253 253 251 250 252 255 256 258 259 259 256 254 254 255 253 251 252 253 254 255 253 249 247 247 248 249 250 252 254 257
238 239 241 245 247 248 250 252 253 254 254 256 258 257 254 253 254 256 258 262 264 263 262 260 258 258 257 256 259 259 258 259 260 257 253 251 252 253 253 252 253 256
238 239 243 246 249 251 253 255 256 256 257 259 261 260 259 257 258 261 263 265 267 266 266 265 261 258 257 259 263 263 263 264 266 267 262 258 259 259 258 259 256 256
237 241 244 247 248 248 250 254 256 256 257 260 262 262 261 261 263 264 265 265 266 266 267 269 269 270 271 271 271 273 276 276 275 272 268 270 277 279 278 275 269 261
235 238 242 243 242 242 246 251 252 253 256 258 261 263 264 266 265 265 266 267 268 270 272 274 275 279 280 276 274 275 277 279 279 275 274 280 291 293 289 285 280 271
237 235 236 238 240 242 245 247 250 254 257 259 263 267 269 268 268 270 272 272 270 269 272 275 275 275 277 277 277 277 279 281 281 281 284 287 289 287 284 282 279 273
246 241 241 244 245 246 247 250 254 256 257 259 266 272 272 272 274 276 275 273 271 269 270 273 274 274 276 278 278 280 282 284 285 288 290 289 284 282 281 279 275 270
257 255 253 254 253 253 255 257 258 258 258 263 272 277 277 279 280 277 274 273 272 271 271 271 271 272 276 280 280 281 283 283 286 291 291 288 284 282 282 282 277 272
256 257 257 260 259 259 262 263 264 266 268 269 272 275 277 279 282 283 282 278 275 273 272 271 272 273 277 282 285 286 286 286 289 293 293 291 288 284 283 283 279 276
245 247 252 257 258 259 264 265 265 269 271 268 268 274 280 283 287 289 288 285 281 274 269 270 275 277 278 285 291 293 294 294 295 296 295 292 288 285 284 283 281 280
245 247 248 251 255 258 259 260 260 262 263 261 265 276 284 288 289 289 287 286 284 277 268 271 277 275 273 280 288 290 288 289 291 292 292 290 287 286 286 284 283 284
251 253 248 247 254 260 260 258 255 251 252 254 262 273 281 286 288 288 288 282 280 278 270 271 270 263 263 272 280 283 284 285 287 288 288 287 285 287 287 286 287 289
255 257 254 250 252 256 256 247 236 239 250 257 258 263 269 274 270 267 274 189 197 212 234 244 250 253 263 275 280 284 285 283 284 284 284 283 284 289 292 293 296 296
252 258 258 249 230 219 227 223 205 212 234 239 234 236 239 230 204 180 138 141 170 188 210 233 251 260 269 277 281 285 286 285 286 287 287 288 289 293 296 298 300 299
245 247 237 220 179 160 175 181 170 178 197 208 204 200 200 185 172 175 170 179 198 205 227 260 269 271 276 285 293 297 293 289 288 288 290 293 296 298 299 299 300 301
228 204 182 177 158 147 155 161 168 182 190 187 172 172 188 195 205 231 226 223 236 250 268 274 276 284 298 316 313 302 296 294 294 296 301 305 307 308 306 303 303 303
190 172 164 160 153 148 154 164 181 190 184 171 165 177 200 219 242 253 246 245 245 239 251 278 314 323 330 343 304 294 304 313 314 315 319 318 315 315 314 311 311 308
168 164 160 155 153 155 164 176 182 178 169 168 175 187 195 191 189 191 191 205 216 208 268 353 30 61 88 91 323 319 332 331 328 330 333 337 338 339 337 334 332 329
161 161 157 152 151 157 165 170 169 165 165 172 183 190 190 178 169 163 159 159 145 113 82 69 88 96 82 49 4 357 356 354 356 359 3 13 12 3 355 347 340 335
158 156 152 146 147 154 157 157 158 160 160 166 174 170 154 134 133 125 114 104 96 98 106 104 101 91 59 27 10 6 12 19 24 16 6 2 355 349 344 337 329 324